Location: Courçay
(47.2523°N, 0.8761°E)
Time: 00:52:32
(UTC+00:00)

ARIANE 5 R/B - Pass Details

Date: 18 November 2025
Orbit: 746 x 792 km, 98.8° (Epoch: 05 December)

Event Time Altitude Azimuth Distance (km) Brightness Sun altitude
Rises 17:42:53 0° 174° (S) 3,177 5.8 -14.3°
Reaches altitude 10° 17:45:11 10° 178° (S) 2,257 5.1 -14.7°
Maximum altitude 17:50:05 60° 258° (WSW) 855 3.0 -15.5°
Drops below altitude 10° 17:55:02 10° 339° (NNW) 2,284 5.1 -16.3°
Sets 17:57:23 0° 343° (NNW) 3,218 5.8 -16.7°
